{"data":{"norad_id":67621,"epoch":"2026-05-25T03:38:56.588640Z","epoch_age_seconds":62580,"freshness":"FRESH","line1":"1 67621U 26020E   26145.15204385  .00025763  00000+0  94196-3 0  9992","line2":"2 67621  43.0013  68.2847 0000838 255.4116 104.6643 15.27597306 17808","mean_motion":15.27597306,"eccentricity":8.38e-5,"inclination_deg":43.0013,"raan_deg":68.2847,"arg_perigee_deg":255.4116,"mean_anomaly_deg":104.6643,"bstar":0.00094196,"rev_number":1780,"period_min":94.265680774904,"perigee_km":482.42231308674,"apogee_km":483.57223919142,"semimajor_km":6861.1342761391,"source":"CELESTRAK","updated_at":"2026-05-25T13:38:21.649658Z"}}